Location: Peach Mountain Observatory
(42.3967°N, 83.9367°W)
Time: 07:19:57
(UTC-05:00)

Vanguard 1 - All Passes

Search period start: 20 January 2020 00:00
Search period end: 30 January 2020 00:00
Orbit: 651 x 3832 km, 34.2° (Epoch: 20 January)

Date Brightness Start Highest point End Pass type
(mag) Time Alt. Az. Time Alt. Az. Time Alt. Az.
20 Jan - 00:06:45 10° WSW 00:14:33 30° SSW 00:27:01 10° SSE night (unlit)
20 Jan - 02:32:49 10° SW 02:37:10 12° SW 02:42:09 10° SSW visible
20 Jan - 17:31:54 10° S 17:34:38 16° SSE 17:37:42 10° ESE daylight
20 Jan - 19:49:03 10° WSW 19:53:46 40° S 20:01:02 10° ESE visible
20 Jan - 22:07:50 10° WSW 22:14:04 40° S 22:24:45 10° SE visible
21 Jan - 00:28:16 10° WSW 00:35:39 24° SSW 00:46:41 10° SSE night (unlit)
21 Jan - 17:51:49 10° SSW 17:55:14 21° SSE 17:59:17 10° ESE daylight
21 Jan - 20:09:44 10° WSW 20:14:36 41° S 20:22:11 10° ESE visible
21 Jan - 22:28:46 10° WSW 22:35:03 34° SSW 22:45:29 10° SE visible
22 Jan - 00:50:21 10° WSW 00:56:47 18° SSW 01:05:35 10° S night (unlit)
22 Jan - 18:12:06 10° SW 18:15:54 27° SSE 18:20:34 10° ESE visible
22 Jan - 20:30:30 10° WSW 20:35:26 40° S 20:43:14 10° ESE visible
22 Jan - 22:49:53 10° WSW 22:56:04 29° SSW 23:05:53 10° SE night (unlit)
23 Jan - 01:13:47 10° SW 01:17:56 12° SSW 01:22:52 10° S night (unlit)
23 Jan - 16:16:29 10° SSE 16:17:28 11° SSE 16:18:27 10° SE daylight
23 Jan - 18:32:36 10° SW 18:36:36 31° SSE 18:41:43 10° ESE visible
23 Jan - 20:51:19 10° WSW 20:56:19 37° S 21:04:12 10° ESE visible
23 Jan - 23:11:14 10° WSW 23:17:05 23° SSW 23:25:51 10° SSE night (unlit)
24 Jan - 16:35:26 10° SSW 16:38:09 16° SSE 16:40:51 10° ESE daylight
24 Jan - 18:53:15 10° WSW 18:57:22 34° S 19:02:48 10° ESE visible
24 Jan - 21:12:13 10° WSW 21:17:13 32° S 21:24:58 10° SE visible
24 Jan - 23:33:03 10° WSW 23:38:10 17° SSW 23:45:08 10° SSE night (unlit)
25 Jan - 16:55:27 10° SSW 16:58:50 21° SSE 17:02:17 10° ESE daylight
25 Jan - 19:13:58 10° WSW 19:18:10 35° S 19:23:47 10° ESE visible
25 Jan - 21:33:15 10° WSW 21:38:08 27° SSW 21:45:29 10° SE visible
25 Jan - 23:56:04 10° SW 23:59:16 12° SSW 00:03:00 10° S night (unlit)
26 Jan - 17:15:50 10° SW 17:19:34 25° SSE 17:23:27 10° ESE daylight
26 Jan - 19:34:46 10° WSW 19:38:58 33° S 19:44:42 10° ESE visible
26 Jan - 21:54:30 10° WSW 21:59:06 21° SSW 22:05:38 10° SSE visible
27 Jan - 15:18:26 10° S 15:20:54 13° SSE 15:23:08 10° SE daylight
27 Jan - 17:36:25 10° SW 17:40:18 29° S 17:44:29 10° ESE daylight
27 Jan - 19:55:39 10° WSW 19:59:48 30° S 20:05:29 10° SE visible
27 Jan - 22:16:10 10° WSW 22:20:05 16° SSW 22:25:11 10° SSE visible
28 Jan - 15:38:09 10° SSW 15:41:41 18° SSE 15:44:48 10° ESE daylight
28 Jan - 17:57:08 10° WSW 18:01:04 31° S 18:05:25 10° ESE daylight
28 Jan - 20:16:39 10° WSW 20:20:39 25° SSW 20:26:03 10° SE visible
28 Jan - 22:39:08 10° SW 22:41:05 11° SSW 22:43:16 10° S night (unlit)
29 Jan - 15:58:24 10° SW 16:02:28 23° SSE 16:06:00 10° ESE daylight
29 Jan - 18:17:56 10° WSW 18:21:51 31° S 18:26:16 10° ESE visible
29 Jan - 20:37:51 10° WSW 20:41:31 20° SSW 20:46:18 10° SSE visible
